OBJECT J, 42833

Orbit data source: Space-Track

You're viewing an Uncataloged Satellite

Recently launched and/or uncataloged satellites may have evolving metadata. Metadata may include but not limited to: Owner, Maufacturer, Bus, Motor, and Mission.

OBJECT J, 42833 is a satellite in SSO that was launched on Fri, 14 Jul 2017 UTC launched from the Tyuratam Missile And Space Complex (TTMTR). Unknown objects in Earth's orbit typically refer to objects detected orbiting the Earth but have not yet been identified or cataloged. These objects could be anything from previously untracked satellites, spent rocket stages, debris from satellite collisions, or even natural meteoroids temporarily captured by Earth's gravity.

Loading next visibility...
Identifier
42833, 2017-042J
Orbit
SSO
Country
Flag of TBDTBD
Related business
Manufacturer
Unknown
Mission
Non-operational spacecraft
Bus & Motor
Unknown
Mass
Unknown
Launch date (UTC)
2017-07-14 (8 years ago)
Launch vehicle
Unknown
Launch site
Tyuratam Missile And Space Complex (TTMTR)
Object type
Unknown
Shape & HBR
Unknown shape, 0.1 m
Radar Cross Section
Small (<0.1 m²)

Expand to show TLE details & history
Last TLE update: 11 hours ago

TLE from 11 hours ago
0 OBJECT J
1 42833U 17042J   25289.10533079  .00005555  00000-0  38379-3 0  9991
2 42833  97.4127  95.3953 0006201 204.5295 155.5639 15.06112940450239
Epoch: 2025-10-16T02:31Z
TLE epoch observation values (Epoch: 2025-10-16T02:31:40.580Z)
Latitude
0.00005°
Longitude
32.60638°
Altitude
555.074 km
Speed
7.582 km/s
True Right ascension
06h 21m 34s
True Declination
0° 00' 00"
Sunlit
Object was in daylight at epoch
Visualization orbit readout
Latitude
Unknown
Longitude
Unknown
Altitude
Unknown
Speed
Unknown
Apparent Right ascension
Unknown
Apparent Declination
Unknown
Sunlit
N/A
Visualization observer readout
Local Sidereal Time
07:57:27
Azimuth
Unknown
Elevation
Unknown
Doppler factor
Unknown
Orbital elements
Apogee altitude
549.369 km
Perigee altitude
540.783 km
Semi-major axis
6,923.213 km
Eccentricity
0.00062
Inclination
97.4127°
RAAN
95.3953°
Arg. of periapsis
204.5295°
True anomaly
155.59327°
Mean anomaly
155.5639°
Eccentric anomaly
155.57859°
Mean motion
3.76775 °/min
Orbital period
95.55 mins
BSTAR
0.00038379
Loading maneuver chart data...
Computing Atmospheric mass density...

Documentation

Showing up to 5 results
|